Weather History for KMSO - September, 2012

Change the Weather History Date:

Saturday, September 29, 2012

  Actual Average Record
Temperature  
Mean Temperature 65 °F 52 °F  
Max Temperature 79 °F 67 °F 87 °F (1938)
Min Temperature 51 °F 37 °F 20 °F (1985)
Degree Days  
Heating Degree Days 0 13  
Month to date heating degree days 134 229  
Since 1 July heating degree days 165 313  
Cooling Degree Days 0 0  
Month to date cooling degree days 0 13  
Year to date cooling degree days 415 330  
Growing Degree Days 15 (Base 50)    
Moisture  
Dew Point 40 °F    
Average Humidity 44    
Maximum Humidity 64    
Minimum Humidity 23    
Precipitation  
Precipitation 0.00 in 0.04 in 0.36 in (1909)
Month to date precipitation T 1.14  
Year to date precipitation 10.51 11.17  
Snow  
Snow 0.00 in - - ()
Month to date snowfall 0.0  
Year to date snowfall 29.2  
Since 1 July snowfall 0.0  
Snow Depth 0.00 in    
Sea Level Pressure  
Sea Level Pressure 30.05 in    
Wind  
Wind Speed 4 mph (SW)    
Max Wind Speed 23 mph    
Max Gust Speed 25 mph    
Visibility 8 miles    
Events      
T = Trace of Precipitation, MM = Missing Value Source: NWS Daily Summary

Daily Weather History Graph

Daily Weather History Graph

Search for Another Location

Airport or City:

Trip Planner

Search our weather history database for the weather conditions in past years. The results will help you decide how hot, cold, wet, or windy it might be!

Date:

Astronomy

Sep. 29, 2012 Rise Set
Actual Time 7:33 AM MDT 7:18 PM MDT
Civil Twilight 7:02 AM MDT 7:49 PM MDT
Nautical Twilight 6:27 AM MDT 8:24 PM MDT
Astronomical Twilight 5:51 AM MDT 9:00 PM MDT
Moon 6:50 PM MDT (9/29) 7:10 AM MDT (9/29)
Length of Visible Light 12h 46m
Length of Day
11h 45m
Full, 100% of the Moon is Illuminated
Sep 29
Full
Sep 29
Full
Oct 8
Last Quarter
Oct 15
New
Oct 21
First Quarter

Hourly Weather History & Observations

Time (MDT) Temp. Dew Point Humidity Pressure Visibility Wind Dir Wind Speed Gust Speed Precip Events Conditions
12:53 AM 63.0 °F 39.0 °F 41% 29.99 in 5.0 mi SSE 10.4 mph - N/A   Smoke
1:53 AM 62.1 °F 42.1 °F 48% 29.99 in 7.0 mi SE 6.9 mph - N/A   Smoke
2:53 AM 63.0 °F 42.1 °F 46% 29.99 in 9.0 mi SE 6.9 mph - N/A   Smoke
3:53 AM 61.0 °F 42.1 °F 50% 29.99 in 10.0 mi ESE 5.8 mph - N/A   Smoke
4:53 AM 57.0 °F 42.1 °F 57% 30.01 in 10.0 mi SE 4.6 mph - N/A   Smoke
5:53 AM 55.9 °F 42.1 °F 60% 30.03 in 7.0 mi Calm Calm - N/A   Smoke
6:53 AM 52.0 °F 39.9 °F 63% 30.05 in 7.0 mi Calm Calm - N/A   Smoke
7:53 AM 52.0 °F 39.9 °F 63% 30.09 in 6.0 mi SW 3.5 mph - N/A   Smoke
8:53 AM 54.0 °F 41.0 °F 62% 30.08 in 6.0 mi Calm Calm - N/A   Smoke
9:53 AM 55.0 °F 41.0 °F 59% 30.10 in 5.0 mi Calm Calm - N/A   Smoke
10:53 AM 61.0 °F 43.0 °F 52% 30.10 in 7.0 mi Calm Calm - N/A   Smoke
11:53 AM 66.0 °F 44.1 °F 45% 30.08 in 8.0 mi Calm Calm - N/A   Smoke
12:53 PM 68.0 °F 44.1 °F 42% 30.07 in 7.0 mi Calm Calm - N/A   Smoke
1:53 PM 73.0 °F 41.0 °F 31% 30.04 in 4.0 mi Calm Calm - N/A   Smoke
2:53 PM 73.9 °F 37.9 °F 27% 30.02 in 4.0 mi West 3.5 mph - N/A   Smoke
3:53 PM 77.0 °F 37.9 °F 24% 30.01 in 5.0 mi Calm Calm - N/A   Smoke
4:53 PM 78.1 °F 37.9 °F 24% 30.01 in 9.0 mi West 18.4 mph 24.2 mph N/A   Smoke
5:53 PM 75.9 °F 37.0 °F 24% 30.02 in 8.0 mi WNW 17.3 mph - N/A   Smoke
6:53 PM 72.0 °F 36.0 °F 27% 30.05 in 8.0 mi WNW 11.5 mph - N/A   Smoke
7:53 PM 64.0 °F 37.0 °F 37% 30.08 in 9.0 mi WNW 6.9 mph - N/A   Smoke
8:53 PM 62.1 °F 37.9 °F 41% 30.10 in 9.0 mi Calm Calm - N/A   Clear
9:53 PM 61.0 °F 37.9 °F 42% 30.11 in 9.0 mi North 5.8 mph - N/A   Clear
10:53 PM 55.9 °F 39.0 °F 53% 30.12 in 10.0 mi Calm Calm - N/A   Clear
11:53 PM 53.1 °F 37.9 °F 57% 30.13 in 10.0 mi Calm Calm - N/A   Clear